Simultaneous Nadir Overpasses (SNOs) Predictions

Prediction of SNOs between AQUA and GOES-15 Satellite Orbit:

Table of predicted SNOs for the next 14.0 days since TLE Epoch: 1/27/2024
Index Date Time (AQUA) AQUA Lat,Lon GOES-15 Lat,Lon Distance(km) Time Diff (sec)
1 01/27/2024 09:47:31 0.39, 63.33 0.03, 61.79 175.60 80
2 01/27/2024 22:07:55 0.65, 58.38 -0.03, 61.68 374.03 80
3 01/29/2024 21:52:26 -0.14, 62.17 -0.03, 61.64 59.84 80
4 01/31/2024 21:36:57 -0.98, 65.95 -0.03, 61.61 493.78 80
5 02/01/2024 09:57:29 -0.12, 60.98 0.03, 61.71 82.39 80
6 02/03/2024 09:41:58 0.66, 64.78 0.02, 61.68 351.45 80
7 02/03/2024 22:02:23 0.32, 59.83 -0.02, 61.57 197.77 80
8 02/05/2024 21:46:50 -0.40, 63.64 0.01, 61.56 236.13 80
9 02/06/2024 10:07:22 -0.67, 58.67 -0.01, 61.66 340.98 80
10 02/08/2024 09:51:50 0.18, 62.46 -0.01, 61.66 91.60 80
11 02/08/2024 22:12:13 0.89, 57.53 0.00, 61.54 457.41 80
